Location: *
(51.0333°S, 178.4667°E)
Time: 19:47:16
(UTC+00:00)

N. Korean satellite - Visible Passes

Search period start: 18 January 2020 00:00
Search period end: 28 January 2020 00:00
Orbit: 454 x 508 km, 97.2° (Epoch: 18 January)

Date Brightness Start Highest point End Pass type
(mag) Time Alt. Az. Time Alt. Az. Time Alt. Az.
18 Jan 10.2 15:30:41 10° E 15:32:27 13° ESE 15:34:13 10° SSE visible
22 Jan 10.5 15:22:57 10° ESE 15:23:59 11° ESE 15:25:00 10° SE visible
25 Jan 10.0 15:38:25 10° E 15:40:40 15° ESE 15:42:55 10° SSE visible
